Hermiston, OR

10:42 AM PDT on May 28, 2017 (GMT -0700)
Hermiston Municipal

Weather History for KHRI - August, 2013

Change the Weather History Date:

Saturday, August 24, 2013

  Actual Average Record
Temperature  
Mean Temperature 75 °F 70 °F  
Max Temperature 86 °F 87 °F 101 °F (1970)
Min Temperature 64 °F 53 °F 40 °F (1914)
Cooling Degree Days 10    
Growing Degree Days 25 (Base 50)    
Moisture  
Dew Point 49 °F    
Average Humidity 43    
Maximum Humidity 58    
Minimum Humidity 25    
Precipitation  
Precipitation 0.00 in 0.01 in 0.33 in (1983)
Month to date precipitation 0.22  
Year to date precipitation 6.51  
Sea Level Pressure  
Sea Level Pressure 29.78 in    
Wind  
Wind Speed 7 mph (SW)    
Max Wind Speed 16 mph    
Max Gust Speed 24 mph    
Visibility 10 miles    
Events Rain    
T = Trace of Precipitation, MM = Missing Value Source: NWS Daily Summary

Daily Weather History Graph

Daily Weather History Graph

Search for Another Location

Airport or City:

Trip Planner

Search our weather history database for the weather conditions in past years. The results will help you decide how hot, cold, wet, or windy it might be!

Date:

Astronomy

Aug. 24, 2013 Rise Set
Actual Time 6:08 AM PDT 7:49 PM PDT
Civil Twilight 5:36 AM PDT 8:20 PM PDT
Nautical Twilight 4:58 AM PDT 8:58 PM PDT
Astronomical Twilight 4:16 AM PDT 9:40 PM PDT
Moon 9:28 PM PDT (8/24) 10:29 AM PDT (8/24)
Length of Visible Light 14h 43m
Length of Day
13h 40m
Waning Gibbous, 83% of the Moon is Illuminated
Aug 24
Waning Gibbous
Aug 28
Last Quarter
Sep 5
New
Sep 12
First Quarter
Sep 19
Full

Hourly Weather History & Observations

Time (PDT) Temp. Dew Point Humidity Pressure Visibility Wind Dir Wind Speed Gust Speed Precip Events Conditions
12:53 AM 69.1 °F 46.0 °F 44% 29.79 in 10.0 mi SW 8.1 mph - N/A   Clear
1:53 AM 66.9 °F 48.0 °F 51% 29.80 in 10.0 mi Calm Calm - N/A   Clear
2:53 AM 64.0 °F 48.9 °F 58% 29.81 in 10.0 mi SW 5.8 mph - N/A   Clear
3:53 AM 64.0 °F 48.0 °F 56% 29.81 in 10.0 mi SW 10.4 mph - N/A   Clear
4:53 AM 64.0 °F 48.9 °F 58% 29.81 in 10.0 mi SSW 9.2 mph - N/A   Clear
5:53 AM 64.9 °F 50.0 °F 58% 29.81 in 10.0 mi SW 4.6 mph - N/A   Clear
6:53 AM 64.9 °F 48.9 °F 56% 29.82 in 10.0 mi SSW 5.8 mph - N/A   Clear
7:53 AM 68.0 °F 50.0 °F 52% 29.83 in 10.0 mi WSW 10.4 mph - N/A   Clear
8:53 AM 72.0 °F 51.1 °F 48% 29.83 in 10.0 mi West 10.4 mph - N/A   Clear
9:53 AM 73.9 °F 51.1 °F 45% 29.82 in 10.0 mi WSW 9.2 mph - N/A   Clear
10:53 AM 77.0 °F 51.1 °F 40% 29.81 in 10.0 mi WSW 10.4 mph - N/A   Clear
11:53 AM 80.1 °F 51.1 °F 36% 29.80 in 10.0 mi West 11.5 mph - N/A   Clear
12:53 PM 80.1 °F 50.0 °F 35% 29.78 in 10.0 mi West 5.8 mph - N/A   Clear
1:53 PM 82.9 °F 48.9 °F 31% 29.76 in 10.0 mi Variable 3.5 mph - N/A   Clear
2:53 PM 84.9 °F 48.0 °F 28% 29.75 in 10.0 mi Variable 5.8 mph - N/A   Clear
3:53 PM 84.9 °F 46.9 °F 27% 29.72 in 10.0 mi WNW 8.1 mph - N/A   Clear
4:53 PM 86.0 °F 46.0 °F 25% 29.71 in 10.0 mi WNW 5.8 mph - N/A   Clear
5:53 PM 84.0 °F 46.0 °F 26% 29.71 in 10.0 mi Calm Calm - N/A   Clear
6:53 PM 82.0 °F 46.9 °F 29% 29.73 in 10.0 mi South 5.8 mph - N/A   Clear
7:53 PM 78.1 °F 51.1 °F 39% 29.74 in 10.0 mi South 10.4 mph - 0.00 in Rain Light Rain
8:15 PM 77.0 °F 51.8 °F 41% 29.77 in 10.0 mi SW 11.5 mph - 0.00 in   Scattered Clouds
8:53 PM 71.1 °F 54.0 °F 55% 29.76 in 10.0 mi SSW 11.5 mph - 0.00 in Rain Light Rain
9:53 PM 72.0 °F 51.1 °F 48% 29.79 in 10.0 mi SSW 15.0 mph - 0.00 in   Clear
10:53 PM 71.1 °F 48.9 °F 45% 29.82 in 10.0 mi WSW 16.1 mph 24.2 mph 0.00 in Rain Light Rain
11:53 PM 69.1 °F 50.0 °F 51% 29.82 in 10.0 mi SSW 6.9 mph - 0.00 in   Mostly Cloudy